Theta_e
298 287 285 283 287 287 289 285 288 287 294 294 293 291 290 289 289 292 293 297 297 292 289 288 287 286 286 287 289 290 291 290 290 290 291 291 291 292 291 292 292 292 290 294 293 294 294 294 293 293 293 292 291 291 291 291 292 291 291 292 292 293 293 293 292 292 292 291 291 292 292 290 291 291 292 293 292 293 292 292 293 293 292 292 292 293
295 286 284 287 284 285 282 284 287 294 295 293 292 290 286 287 285 290 291 294 295 291 288 289 287 286 286 288 289 290 290 289 291 291 292 292 292 292 292 292 292 291 292 293 292 291 292 291 293 293 293 293 291 290 290 290 291 292 292 291 292 292 292 293 292 292 293 292 292 291 291 290 290 290 289 289 290 291 294 292 292 292 291 291 292 293
286 283 285 287 285 286 285 286 294 295 292 292 290 287 286 286 289 292 292 294 294 291 287 288 285 285 286 287 289 290 290 292 293 292 292 292 291 291 292 292 292 290 290 289 291 293 290 292 293 292 292 291 291 291 290 291 291 291 291 291 292 291 292 292 293 292 291 292 292 291 290 291 290 291 290 290 292 292 291 291 291 292 291 291 290 291
282 282 286 288 285 289 289 291 293 291 291 289 287 285 283 287 287 283 290 293 293 290 287 288 286 285 287 288 289 291 292 293 295 293 291 291 291 291 292 291 291 290 289 288 288 288 288 290 289 290 291 291 293 291 290 290 290 291 292 291 291 291 291 291 292 294 292 293 291 291 291 291 289 289 290 290 291 291 291 291 293 292 291 291 290 290
282 286 288 289 291 291 289 292 291 289 287 287 289 287 286 288 289 287 287 290 291 291 292 289 287 286 287 286 287 289 290 290 290 290 290 290 292 291 292 290 291 289 289 288 288 288 288 288 288 289 290 290 291 291 291 292 290 292 290 290 291 291 292 291 291 291 292 292 291 291 291 290 289 289 288 287 288 290 291 291 290 290 291 292 291 291
286 288 289 287 289 290 291 288 286 289 287 288 288 288 290 290 288 289 290 289 286 285 292 292 283 284 288 289 288 289 288 288 290 289 289 290 290 289 288 289 290 291 290 289 288 288 288 288 289 289 290 290 290 290 291 291 291 289 290 290 290 291 290 290 291 291 291 290 289 288 287 286 286 285 286 286 286 287 287 287 289 290 290 291 290 290
287 291 287 288 288 283 290 289 286 287 287 285 286 290 291 290 290 290 290 289 283 282 288 290 282 282 288 288 290 291 289 289 290 289 290 290 291 289 288 289 288 288 288 289 289 289 289 289 289 289 289 289 289 290 291 290 289 289 290 290 290 289 290 292 290 291 292 289 289 288 288 288 287 286 287 287 288 288 288 289 288 288 289 290 290 290
287 287 286 286 287 285 288 286 288 286 288 283 292 292 291 291 289 290 291 289 285 289 290 290 286 282 282 287 291 293 290 289 290 290 290 291 291 290 289 289 288 288 288 288 288 289 289 289 288 288 289 290 290 290 290 289 289 289 289 289 290 290 292 291 291 290 291 288 287 288 288 290 287 287 287 288 288 289 290 288 288 289 289 289 290 290
286 283 284 283 285 285 283 283 285 287 288 287 292 293 291 290 291 291 289 286 287 287 283 285 288 280 281 287 291 291 287 288 289 291 291 292 292 291 290 289 289 289 289 289 289 289 289 289 289 289 289 290 290 291 290 289 289 290 289 290 289 289 289 289 290 290 289 291 288 287 287 286 288 288 289 289 289 288 289 288 288 289 289 289 290 290
287 287 286 285 284 283 286 285 287 287 287 291 295 294 294 294 293 291 289 287 286 285 281 283 285 278 280 284 286 289 287 288 290 292 293 293 294 293 290 289 290 290 289 289 290 290 289 289 289 289 289 290 290 291 292 290 290 290 289 290 289 288 288 289 288 290 288 288 290 287 286 286 287 288 288 287 287 287 287 287 288 288 289 289 289 289
289 292 291 284 282 288 287 288 289 292 292 295 295 292 291 291 290 291 289 286 283 278 279 282 285 280 277 283 286 285 286 290 291 292 294 295 295 294 291 290 291 290 290 290 289 289 289 290 290 290 289 289 290 291 290 290 290 290 290 289 288 289 288 289 288 288 288 288 288 287 287 286 286 287 287 287 287 287 287 287 287 287 288 288 288 288
287 287 284 287 291 290 290 290 293 294 294 293 291 289 289 287 289 287 284 285 278 276 278 280 282 284 275 282 287 292 294 293 293 293 294 295 296 294 291 291 292 291 290 290 289 288 289 289 289 289 288 289 289 290 290 290 290 290 290 290 289 289 289 288 288 288 288 288 288 287 287 287 287 287 287 286 286 286 286 286 287 287 287 287 289 288
283 283 287 290 292 288 286 289 289 293 294 292 291 289 283 280 282 278 281 276 277 273 278 280 283 280 279 284 290 293 293 294 296 294 292 296 297 293 292 291 291 291 290 289 289 289 289 288 288 288 288 289 289 289 289 290 290 291 290 290 289 289 289 289 288 288 287 288 288 288 288 288 289 288 288 287 287 287 287 287 287 287 287 288 288 288
282 287 285 285 290 289 288 286 285 286 288 290 288 286 282 278 277 275 276 278 273 278 280 279 284 279 283 284 287 288 288 290 290 290 292 291 291 292 292 291 291 290 290 289 289 288 288 288 288 288 289 289 289 289 290 290 290 291 291 290 289 289 289 288 288 288 288 288 288 289 289 289 289 288 288 287 287 287 287 288 287 287 288 288 288 289
277 278 281 283 280 287 286 285 285 286 288 286 289 285 284 283 278 274 275 271 272 274 278 282 277 277 278 280 287 287 289 289 288 289 289 290 292 291 290 290 291 291 288 288 288 289 289 289 288 289 290 289 289 289 290 290 290 290 289 290 290 289 289 289 289 289 289 289 289 289 289 289 289 288 288 288 289 288 288 288 288 288 289 288 289 289
278 278 283 288 285 286 283 289 290 286 287 289 289 290 283 280 279 276 276 275 273 274 274 275 277 281 280 286 287 287 286 287 288 288 289 290 291 292 292 291 291 291 290 289 289 289 289 289 289 290 290 290 290 290 289 290 290 289 290 290 290 290 290 290 290 290 290 290 290 290 289 290 290 291 290 289 290 289 289 289 289 289 289 289 289 290
280 276 284 288 288 284 284 288 289 288 282 285 286 279 280 283 281 274 276 280 278 276 274 280 279 282 284 285 286 286 285 286 287 287 288 289 290 291 291 291 291 291 290 289 289 288 289 288 289 290 290 290 290 290 290 291 290 290 291 290 290 290 290 290 290 290 290 291 290 290 290 290 290 290 289 290 290 290 291 290 290 290 290 290 290 290
278 276 283 284 283 287 287 287 288 290 287 284 279 280 285 283 278 278 273 274 275 271 271 279 276 279 278 276 283 283 284 285 285 286 288 289 290 290 291 292 292 291 291 291 290 289 289 289 290 290 291 290 291 290 290 291 290 291 291 291 291 290 290 290 290 290 290 290 290 290 290 290 290 291 290 290 290 290 290 290 290 289 289 289 290 290
280 276 279 282 283 287 289 288 286 288 289 285 282 283 281 277 276 279 276 269 270 269 271 276 278 277 278 278 280 281 282 283 285 286 286 288 288 289 290 291 291 292 292 292 291 291 291 291 292 291 291 291 291 291 291 292 292 291 291 291 291 291 291 290 291 290 290 290 291 292 291 290 290 290 290 290 290 289 289 289 289 289 289 289 289 289
281 275 276 283 283 284 284 282 275 278 286 285 286 281 279 278 276 276 275 274 275 270 269 270 275 275 282 278 281 281 282 283 284 285 285 286 287 288 289 290 291 292 293 293 293 293 293 293 293 293 293 293 293 293 293 293 293 292 291 291 291 291 290 290 290 290 290 290 290 291 290 290 290 290 290 289 289 289 288 289 289 288 288 288 288 288
279 281 272 278 283 283 276 277 276 276 276 278 280 277 278 276 276 277 275 273 274 271 271 269 270 274 278 281 281 283 284 285 285 285 286 287 287 288 289 289 290 290 290 291 291 291 292 291 292 292 292 293 293 293 293 292 292 292 292 291 291 291 290 290 290 290 290 290 291 290 289 289 289 289 289 289 289 289 288 288 288 288 288 287 287 287
278 279 274 277 278 276 275 279 279 279 278 278 277 275 276 275 274 272 271 276 271 273 271 271 268 274 279 282 284 283 285 285 286 286 287 287 287 288 289 289 290 290 289 289 290 289 290 290 290 290 289 290 290 291 291 292 292 291 291 291 291 291 291 291 291 291 291 290 290 290 289 289 289 289 289 288 288 288 288 288 288 287 287 286 287 286
279 279 277 272 273 275 279 279 280 279 279 279 278 276 276 275 275 273 270 269 271 272 270 269 269 272 280 282 284 285 285 285 285 286 287 287 287 287 287 288 288 289 289 289 288 289 289 289 289 289 289 289 289 290 290 290 291 291 291 291 291 291 291 291 291 291 290 290 290 289 289 289 288 288 288 287 287 287 287 287 287 287 286 286 286 286
285 275 272 272 276 278 278 276 276 273 277 278 279 279 278 273 274 274 273 273 273 268 271 272 269 272 280 282 283 284 284 284 284 285 286 286 287 287 286 286 287 288 288 288 288 289 289 289 289 289 288 289 289 289 289 290 290 291 291 291 291 291 290 291 291 291 290 290 289 289 288 288 288 287 287 286 287 286 286 286 286 286 286 285 285 285
273 274 274 270 271 272 274 273 276 274 274 275 276 276 276 277 277 275 272 271 272 270 269 270 268 272 280 281 282 282 282 282 283 284 285 285 285 285 285 287 287 288 288 288 288 289 289 289 288 289 289 289 289 289 289 289 290 290 290 290 290 290 291 291 290 290 290 289 288 288 287 287 287 286 286 286 286 285 285 285 285 285 285 285 285 285
276 272 273 272 267 265 266 267 270 273 274 276 278 277 277 277 275 274 274 274 272 272 271 272 272 276 281 281 282 281 281 282 283 282 283 284 284 285 286 287 288 288 288 287 287 288 288 288 288 288 288 289 289 289 289 289 289 290 290 290 290 290 290 290 289 289 288 288 287 287 286 286 285 286 285 285 284 285 285 285 285 284 284 284 284 284
272 272 270 270 272 272 271 273 276 277 275 271 272 278 276 278 277 276 274 273 274 269 270 274 276 276 277 278 280 280 280 281 283 284 283 285 285 286 286 286 287 287 287 287 288 288 287 287 288 288 289 289 289 289 289 289 290 290 289 289 290 290 289 290 289 288 287 286 285 285 285 285 285 285 284 284 284 285 284 284 284 284 284 284 283 283
274 273 270 269 269 270 275 274 275 276 273 274 273 274 277 277 277 272 271 273 275 272 272 276 276 277 277 278 280 281 282 282 283 283 283 284 285 285 285 285 289 286 286 287 287 287 287 287 287 288 288 288 289 289 289 289 290 290 289 289 289 289 289 290 288 286 285 285 284 284 285 285 284 284 284 284 284 284 284 284 283 284 284 283 283 283
276 274 270 271 269 273 275 275 275 275 276 275 275 275 273 276 275 269 271 277 273 272 273 275 273 273 277 280 280 282 283 283 283 284 285 285 285 284 285 285 285 286 286 286 286 287 287 286 287 287 287 288 288 288 287 287 288 288 288 289 289 288 288 287 286 285 284 283 283 284 284 284 284 284 284 284 284 283 283 283 283 283 283 283 283 284
276 271 271 272 270 271 273 275 276 272 272 273 274 275 277 276 274 275 274 277 272 270 273 275 275 275 277 279 281 283 284 284 284 284 284 284 284 286 286 285 285 285 285 286 286 287 287 287 287 286 287 287 288 287 286 286 287 287 287 287 287 287 287 285 284 284 284 284 283 283 283 283 282 283 283 283 283 282 282 282 282 282 282 282 282 281
277 276 275 269 270 270 272 276 275 273 271 270 272 275 277 276 274 275 274 274 273 271 271 273 272 275 279 281 283 285 284 285 284 283 284 285 286 286 285 285 284 285 285 286 286 286 286 286 286 286 286 286 287 287 287 287 287 287 285 286 286 286 285 284 284 283 282 283 283 283 282 282 282 281 282 282 282 281 281 282 282 281 281 281 281 281
277 271 271 269 274 272 272 271 271 271 268 269 268 270 271 273 271 272 272 275 274 272 275 273 272 275 280 284 284 284 284 284 283 284 286 286 287 286 285 285 285 285 285 285 286 286 286 286 286 286 286 286 286 286 286 285 285 284 285 286 285 284 284 283 283 283 282 282 282 282 282 282 282 281 281 281 281 281 281 281 281 281 280 280 279 279
274 271 272 273 276 274 271 273 270 267 271 273 275 275 275 276 277 279 278 279 278 279 274 272 276 281 282 283 281 283 283 283 284 286 285 285 286 286 285 285 285 285 285 285 285 285 285 286 286 286 285 285 286 286 285 286 284 284 286 284 284 283 283 283 283 282 282 282 282 281 281 281 280 280 280 280 281 281 281 280 280 280 279 278 278 277
276 275 276 274 276 275 269 268 269 272 273 275 280 279 279 277 277 277 276 278 279 280 278 280 282 282 283 282 283 283 284 285 285 286 287 286 285 285 285 285 285 285 285 285 285 285 285 286 286 286 286 285 285 284 284 284 284 284 285 285 283 283 282 283 282 282 282 282 281 281 280 281 280 280 280 280 280 280 280 279 279 278 277 276 276 275
276 275 276 272 276 275 268 269 274 271 273 279 279 279 278 279 279 278 279 280 280 280 280 280 279 280 282 283 284 285 287 286 286 286 286 286 286 285 285 286 285 285 285 285 285 285 285 285 285 284 283 284 284 284 284 284 283 284 284 283 283 282 283 282 282 281 281 281 281 281 281 280 280 280 280 280 280 279 278 278 277 276 275 275 275 274
275 276 276 276 275 275 274 275 269 272 278 279 278 278 279 279 277 278 279 280 281 281 281 279 281 282 283 284 285 285 285 285 284 285 285 286 286 286 286 285 285 284 284 285 285 285 285 284 284 284 284 284 284 283 283 283 283 283 283 282 283 282 282 282 281 281 281 280 280 280 280 280 279 279 279 279 278 277 276 275 275 274 274 275 274 274
278 275 276 277 275 274 274 274 275 278 277 277 278 277 275 277 276 278 277 279 281 281 281 280 281 282 284 284 285 284 282 282 282 284 286 287 287 288 287 286 286 286 285 285 285 285 286 285 284 283 283 282 282 282 282 282 283 283 282 281 282 282 281 281 281 280 280 280 280 280 279 279 279 279 278 277 276 275 274 274 274 274 274 274 273 273
277 275 275 275 274 275 275 274 276 275 272 276 280 280 282 281 281 280 278 279 282 281 283 282 282 283 283 283 283 282 282 280 278 282 283 285 286 287 286 286 286 285 284 284 284 283 283 283 283 282 283 282 282 281 282 282 283 282 281 281 281 281 281 281 280 280 280 279 279 279 279 278 278 277 276 275 274 274 274 274 273 273 274 273 272 272
276 277 274 276 276 275 273 272 272 271 273 279 279 280 281 279 281 280 278 275 280 281 283 284 282 282 283 282 283 281 278 276 278 282 284 285 285 286 284 284 284 284 283 283 283 283 282 282 283 283 282 281 281 282 282 282 282 281 281 281 281 281 280 280 279 279 279 279 279 278 278 277 277 275 274 274 274 274 273 273 273 273 273 272 272 272
275 277 277 276 272 272 272 273 274 275 275 279 279 279 280 280 280 279 274 274 281 282 282 283 283 282 282 282 282 281 279 276 278 282 284 286 285 284 283 283 283 282 282 282 282 283 283 283 283 282 282 281 282 282 282 282 281 281 281 281 280 281 280 279 279 279 279 278 278 277 277 276 275 274 273 273 273 273 273 273 272 272 272 272 271 271
273 274 274 274 275 275 277 273 275 277 280 280 279 279 280 279 280 275 271 277 280 281 282 283 283 283 283 281 281 279 281 283 284 284 284 283 283 283 283 283 283 283 283 283 283 284 283 283 283 282 282 282 282 282 282 282 281 280 280 280 280 280 279 279 279 279 278 277 276 276 275 274 274 273 273 273 273 273 272 272 272 272 271 271 270 270
273 272 273 271 275 275 274 273 274 277 280 279 279 281 280 280 275 273 281 281 281 282 283 283 282 282 282 281 281 282 284 284 284 283 283 282 282 282 282 282 282 282 282 282 283 283 282 281 282 281 281 281 282 281 282 281 281 281 280 280 279 278 279 279 278 277 276 275 275 274 274 273 273 272 273 272 272 271 271 271 271 271 270 270 269 269
275 273 275 276 273 271 270 271 272 271 278 281 279 279 279 278 279 282 282 283 282 282 282 282 283 283 283 281 281 283 283 282 282 282 282 282 282 282 282 282 282 282 282 282 282 281 282 281 281 281 280 281 281 281 282 281 280 280 280 279 278 278 278 278 277 276 275 275 274 273 273 272 271 272 272 271 271 270 269 269 268 269 269 269 268 268
277 275 276 277 275 275 273 270 273 279 280 282 282 279 279 282 284 283 281 282 283 282 282 282 281 282 282 282 282 282 282 282 281 281 281 281 281 281 281 281 281 281 281 281 281 281 281 281 280 280 280 280 280 281 281 281 280 280 278 277 278 276 275 274 274 274 274 273 273 272 271 270 270 271 270 270 269 267 268 268 267 268 267 267 267 266
278 278 277 276 277 275 274 277 281 280 281 283 284 284 284 285 285 282 282 282 282 282 282 282 282 282 282 282 282 282 282 281 281 281 281 281 281 281 281 281 282 281 281 281 281 281 281 281 280 279 279 279 280 280 281 279 279 278 278 277 277 274 272 272 272 273 272 271 270 269 269 269 270 270 269 269 268 267 267 266 266 266 266 265 265 265
279 278 277 277 276 278 281 284 284 282 282 281 284 285 284 286 285 282 283 282 282 283 284 284 283 283 282 282 282 281 281 281 281 280 280 281 281 281 281 281 281 281 281 280 280 280 281 280 279 279 279 279 280 280 280 279 278 276 277 277 275 274 272 272 271 270 269 268 268 269 268 267 268 267 268 267 267 266 265 265 266 265 265 264 264 266
276 276 276 275 277 277 275 281 281 281 282 283 284 285 285 284 285 284 283 283 284 284 283 283 284 283 283 282 282 282 282 281 281 281 280 281 281 280 280 281 280 281 281 280 280 281 280 279 279 279 279 279 280 279 279 278 277 277 276 275 275 273 272 270 269 269 268 268 267 266 266 266 266 267 267 266 267 267 264 265 265 265 264 263 263 265
276 277 276 275 276 275 277 279 280 281 282 282 285 284 282 284 284 283 284 284 284 284 284 284 283 282 282 282 281 281 281 280 280 280 280 280 281 281 281 281 280 280 280 281 280 280 279 279 279 279 278 279 279 278 278 277 276 275 274 273 272 272 272 271 270 269 268 267 267 267 266 267 270 268 266 266 267 266 266 264 264 263 264 263 264 265
277 278 274 276 277 278 280 282 283 283 282 283 283 283 285 285 285 284 284 283 284 283 282 282 282 283 281 282 281 281 280 280 280 280 279 280 280 280 280 280 280 280 280 280 279 280 280 279 279 279 278 279 279 278 276 275 275 273 272 272 271 271 269 269 270 269 268 268 268 267 267 266 266 265 265 266 266 266 265 265 265 265 264 265 266 266
277 275 277 277 274 275 277 281 280 279 279 283 284 283 284 284 282 283 283 282 281 281 280 280 280 280 281 281 281 280 280 281 280 280 279 280 280 280 280 280 280 280 280 280 280 280 280 279 279 278 278 279 278 277 276 274 274 272 272 271 270 269 268 268 268 268 269 268 267 266 266 266 265 265 265 264 264 265 265 268 269 269 267 265 269 270
279 279 279 277 276 277 281 283 282 283 281 283 285 284 283 283 282 282 281 281 280 280 280 280 280 279 280 280 279 280 280 281 280 280 279 279 280 281 281 280 280 279 279 279 279 278 278 279 279 278 277 278 277 276 274 273 273 272 271 270 270 268 267 267 267 268 267 267 266 267 265 265 264 264 264 264 264 263 264 263 263 269 270 270 269 269
Wind_Speed
1 3 1 3 1 5 7 3 2 4 4 7 12 13 11 12 10 9 7 8 7 10 9 10 10 8 8 6 6 6 5 2 2 3 2 2 1 1 1 3 2 1 3 2 1 2 0 0 1 1 2 1 1 1 2 3 3 4 3 3 3 3 4 5 5 4 3 4 5 3 3 3 2 1 1 1 1 0 0 0 2 3 1 1 3 2
4 4 4 2 1 3 5 4 5 4 6 8 14 13 10 9 9 5 7 6 3 4 6 8 11 8 7 5 5 4 5 4 5 4 4 3 3 2 1 2 2 3 3 2 2 2 2 1 0 0 0 2 1 2 2 3 2 2 2 3 3 4 3 3 3 4 3 3 1 1 2 2 3 2 3 2 3 1 1 3 2 3 2 3 3 3
1 5 3 6 2 5 2 4 3 3 6 13 12 11 11 8 9 7 7 7 8 12 7 7 9 7 5 4 3 4 4 3 5 3 3 4 4 3 3 2 3 4 4 3 2 0 2 3 1 0 0 0 1 1 1 0 2 1 2 3 3 2 2 2 3 3 1 2 2 1 2 2 3 3 3 2 3 2 4 4 3 3 4 4 4 4
3 2 5 6 4 5 4 5 9 10 10 11 11 11 9 10 9 8 6 7 3 3 8 7 9 5 4 2 2 4 4 1 1 1 2 3 1 3 4 3 4 4 4 4 3 4 4 3 3 3 2 1 0 1 1 0 0 0 1 2 2 1 1 1 1 1 2 2 2 3 4 4 4 4 3 4 5 4 4 5 5 5 4 4 4 4
4 3 2 5 2 2 4 9 6 9 10 5 9 11 12 10 5 7 9 11 12 8 8 11 7 3 3 2 2 3 3 1 1 2 3 3 3 3 3 3 1 1 4 4 4 3 3 3 4 4 4 2 2 2 0 0 2 0 1 0 0 2 0 0 0 1 3 4 3 4 4 4 4 5 6 4 6 6 5 4 3 5 4 4 5 5
8 3 3 0 2 2 4 7 5 4 10 8 4 11 12 10 14 12 12 9 4 5 2 2 4 1 4 5 4 3 3 4 3 4 5 5 5 4 4 3 4 4 1 2 4 5 4 5 4 4 3 3 3 3 3 2 1 2 2 1 2 2 2 1 1 0 2 4 4 4 4 4 3 5 4 3 3 3 5 5 4 4 4 5 5 5
3 9 4 5 5 4 1 4 3 3 10 9 6 8 11 13 13 9 9 8 5 5 4 2 1 3 1 5 6 5 6 5 4 6 6 6 6 6 5 5 5 5 5 4 3 3 4 5 4 4 5 4 4 4 4 3 3 4 3 2 2 3 3 2 1 1 1 4 3 3 3 3 4 5 5 4 4 4 5 4 4 5 5 5 6 6
7 10 9 10 6 4 4 4 3 3 8 6 7 12 12 14 10 7 7 5 4 4 2 1 0 1 2 5 3 6 5 5 6 7 7 7 6 5 6 6 5 5 6 6 6 5 5 5 5 5 5 5 6 4 4 4 4 5 4 4 4 3 3 2 3 3 3 4 4 4 4 4 5 6 7 5 5 5 4 6 7 6 6 6 6 7
6 5 9 8 4 3 2 1 6 5 3 9 11 10 12 12 9 6 8 8 6 6 1 1 2 0 2 3 6 5 4 5 9 9 9 9 7 8 8 7 5 6 6 6 6 7 7 6 6 5 5 6 6 5 5 5 5 4 4 4 2 3 4 4 4 4 4 4 4 4 4 5 5 5 6 5 5 5 5 5 6 6 6 7 7 7
3 4 2 2 2 3 2 3 3 3 12 6 9 8 8 5 4 6 7 8 5 4 3 1 3 1 2 2 6 4 3 6 9 10 8 10 11 9 8 6 6 6 5 6 7 7 6 6 5 5 5 5 5 5 5 5 4 4 3 3 3 5 4 5 5 5 5 5 4 4 5 6 7 6 7 5 6 6 5 6 7 6 7 7 6 7
3 1 4 4 3 3 2 4 1 5 8 10 8 9 6 4 3 5 6 5 4 3 1 2 2 2 1 6 8 8 8 12 5 3 6 5 6 8 8 7 7 6 6 6 6 5 5 5 6 5 5 5 4 5 5 5 5 4 3 4 5 6 6 6 6 5 5 5 4 5 5 5 7 7 6 7 7 6 6 7 7 7 7 7 7 7
5 3 3 2 3 3 3 5 6 8 7 6 6 8 7 3 5 5 2 2 2 1 2 1 1 1 1 0 5 8 1 4 4 5 7 8 8 8 7 6 7 6 6 7 6 5 5 5 5 5 5 5 5 5 5 5 4 4 4 4 6 6 6 6 6 5 5 5 5 5 5 6 7 7 6 7 8 7 7 7 8 7 6 7 6 7
10 9 2 3 2 8 4 8 4 4 3 2 7 7 6 6 3 3 3 2 1 2 1 0 1 0 3 2 3 7 2 3 4 2 4 2 7 8 7 7 8 7 6 7 7 7 7 7 6 6 6 5 5 5 5 5 5 5 6 6 6 7 5 6 5 5 6 5 6 6 7 7 7 7 7 8 8 7 7 7 8 7 7 6 7 6
3 1 9 8 1 9 4 7 5 6 2 3 6 5 4 6 4 5 3 1 3 1 2 1 2 0 1 1 6 6 4 4 6 3 3 5 5 4 3 5 5 5 6 6 6 6 6 5 5 5 6 5 5 5 5 5 6 6 6 6 6 8 5 5 5 6 6 6 7 7 7 8 7 7 7 7 7 7 7 6 7 7 7 8 8 8
3 2 8 7 3 6 6 5 1 1 1 1 0 1 2 1 2 6 3 2 2 2 0 1 2 2 2 1 1 3 2 4 4 3 3 3 2 1 1 2 0 5 5 4 4 4 4 4 5 5 4 4 4 4 5 5 6 6 6 6 7 7 6 5 6 6 7 7 7 6 7 7 7 7 7 7 6 6 6 6 7 7 7 7 8 7
3 4 0 1 2 3 2 2 1 1 1 1 0 1 1 1 1 4 0 3 3 3 2 1 1 1 2 1 1 1 3 1 2 2 2 0 0 0 0 1 0 1 2 2 1 1 2 3 4 4 4 4 4 5 5 5 5 5 6 6 7 7 7 6 6 6 7 7 6 6 6 7 6 6 6 6 5 6 5 6 6 7 7 6 6 6
0 6 4 1 3 2 3 2 1 2 2 3 0 1 1 2 3 5 1 1 1 2 1 0 2 1 1 0 2 1 1 1 1 1 0 1 1 1 1 1 1 2 2 2 3 3 4 5 5 5 4 5 5 5 5 6 6 6 6 6 6 7 6 6 7 7 6 6 5 6 5 5 5 5 5 6 5 6 5 5 6 6 6 6 6 6
3 2 1 4 3 1 0 1 3 1 2 1 3 2 1 1 2 1 2 1 0 2 1 1 2 1 1 2 1 3 2 3 2 1 1 0 1 1 1 2 2 2 2 1 3 4 5 5 5 5 5 5 5 5 5 6 5 5 6 6 6 6 6 5 5 4 4 4 4 4 5 5 4 4 5 5 5 5 5 6 6 5 6 6 6 6
2 6 4 2 2 1 2 1 1 1 3 3 6 1 1 1 1 0 3 1 1 1 0 0 0 3 1 1 0 2 4 4 4 3 2 2 3 4 3 3 3 2 1 1 2 3 2 2 2 3 4 5 5 5 5 5 5 4 4 4 4 5 5 5 4 4 4 4 4 4 5 4 4 4 4 4 4 4 5 5 6 5 6 6 6 6
2 3 2 1 1 1 2 4 3 7 3 4 1 2 0 2 1 2 0 1 1 2 3 1 1 1 0 1 0 4 5 4 4 4 4 3 4 4 4 4 3 2 0 1 1 1 1 1 1 1 1 2 2 2 3 3 3 3 4 4 5 5 5 4 5 4 5 4 4 4 4 4 4 4 4 4 4 5 5 5 5 5 5 6 5 5
2 0 3 1 2 2 4 5 2 3 4 6 5 2 2 2 2 1 1 2 1 2 3 3 0 1 1 3 3 5 4 4 3 2 2 3 3 4 3 2 2 1 2 2 3 3 3 4 4 4 4 4 4 3 4 4 4 5 4 4 4 5 5 4 4 4 4 4 4 3 4 4 4 4 4 4 4 4 5 5 5 5 5 4 5 5
2 5 3 0 4 5 1 1 0 0 0 0 1 2 1 2 2 1 0 0 1 1 1 3 1 0 1 3 2 4 2 4 2 1 2 2 2 2 1 1 0 1 1 2 2 2 3 3 3 4 4 4 4 4 5 4 4 4 4 4 4 4 4 4 4 4 4 3 3 2 4 4 4 4 4 4 4 5 5 5 4 4 4 5 5 5
1 1 6 4 1 0 1 1 3 2 1 1 1 0 0 1 1 1 0 2 1 0 1 1 2 2 1 2 1 2 2 2 1 0 0 1 1 1 1 1 1 1 1 1 2 2 3 3 3 3 3 4 4 4 4 4 4 4 4 4 3 3 4 3 4 3 3 2 2 3 3 3 4 4 4 4 4 4 5 5 5 5 5 5 5 5
2 2 3 1 1 2 2 1 1 4 1 1 1 1 1 1 1 1 1 1 1 1 1 1 1 2 2 0 1 0 1 0 0 1 0 1 1 1 2 2 2 1 1 1 2 2 3 2 2 3 4 4 4 4 4 4 4 4 3 3 3 3 4 4 3 2 1 1 2 3 4 4 4 4 4 4 4 5 5 5 5 4 5 5 5 6
2 1 2 2 1 2 2 1 1 0 0 0 1 1 0 0 1 1 0 1 2 0 3 1 0 2 2 1 1 1 1 0 1 3 1 1 1 1 1 1 1 1 1 2 2 2 1 2 2 3 3 4 4 3 3 3 3 3 4 3 3 3 3 2 1 1 1 1 2 4 4 4 4 4 4 4 4 5 5 5 5 5 5 5 6 5
4 1 1 1 2 2 1 3 3 1 1 1 1 1 2 3 2 1 1 1 0 1 2 1 0 1 0 0 1 1 1 1 2 4 4 2 1 0 0 1 1 1 2 2 1 2 2 2 4 3 2 2 2 2 3 3 3 4 3 4 3 2 2 2 1 2 2 2 3 4 4 4 4 4 4 4 4 4 5 5 5 5 5 5 6 6
2 2 4 1 1 1 1 1 1 2 1 1 0 0 1 0 1 0 0 1 0 2 1 0 1 0 1 2 1 3 2 1 1 1 1 1 1 1 1 1 1 2 3 3 1 3 3 3 2 2 2 2 2 2 2 3 3 3 3 3 2 2 2 1 1 1 2 3 4 4 4 4 4 4 4 4 4 4 4 4 5 5 5 5 5 6
2 3 3 5 5 1 1 1 3 4 0 0 1 0 1 0 0 2 1 1 1 3 1 1 5 1 1 3 2 2 1 1 2 3 3 3 3 2 2 2 4 4 3 1 2 2 3 3 3 2 2 2 2 2 3 3 3 4 3 3 2 1 1 1 2 2 3 4 4 4 4 4 3 4 4 4 4 4 4 4 4 5 5 5 6 6
1 2 3 4 2 1 0 2 2 3 1 1 1 0 0 0 1 1 0 2 3 0 1 1 5 2 2 1 4 3 3 2 2 2 1 1 2 3 2 2 2 3 2 2 3 3 2 3 3 3 3 3 2 2 2 4 4 4 3 1 1 1 2 2 2 2 3 4 4 4 4 4 3 4 4 4 4 4 4 4 5 5 6 5 6 6
2 2 1 1 2 1 1 1 2 1 1 1 0 1 0 0 1 0 1 1 1 2 1 3 4 7 7 6 6 1 1 1 1 1 1 2 3 1 0 2 3 3 3 3 4 3 3 3 3 4 3 3 2 2 3 4 4 3 2 3 3 2 2 4 3 3 4 4 4 4 4 4 3 3 4 4 4 4 4 5 5 6 6 6 6 6
1 0 3 1 1 2 0 1 3 3 2 3 2 2 1 0 1 1 0 1 2 2 3 3 3 7 5 4 2 1 0 0 1 2 1 1 1 1 1 2 4 4 4 3 3 3 3 3 3 4 4 3 2 2 3 3 4 3 3 3 2 2 3 4 3 4 3 4 4 4 3 3 3 3 4 4 4 5 5 6 6 6 6 6 6 7
2 2 1 1 1 0 0 1 1 3 4 2 7 5 2 1 2 2 2 4 3 4 1 1 1 3 3 1 0 1 1 1 2 3 0 1 0 1 3 4 4 4 4 4 4 4 4 4 4 4 4 4 3 3 3 4 4 4 4 2 3 3 3 3 3 3 3 4 4 3 3 3 4 4 4 4 5 5 5 6 6 6 6 7 8 8
2 5 2 1 1 1 1 1 2 6 3 2 5 6 10 5 2 1 1 4 5 3 4 1 2 2 1 0 3 1 2 3 1 0 1 2 2 2 4 4 4 4 3 4 5 5 4 4 4 4 4 3 4 4 3 3 4 4 3 3 3 2 3 3 2 2 3 3 3 3 4 4 4 4 5 5 5 5 6 6 7 7 7 8 7 7
0 0 1 1 0 0 0 1 1 1 0 1 0 2 4 7 9 5 3 6 6 6 4 3 1 1 0 1 2 3 1 1 0 2 3 4 5 4 3 3 2 4 4 4 4 4 5 4 4 4 4 4 4 3 4 4 4 4 2 1 2 2 3 2 2 2 3 3 3 4 4 4 4 4 4 5 5 6 7 6 7 6 6 7 7 8
1 1 1 1 1 0 0 1 1 0 1 0 0 2 3 2 5 9 4 3 4 8 8 8 7 5 6 4 5 2 1 2 3 6 8 5 4 4 3 3 4 4 5 5 5 5 5 5 5 5 5 5 4 4 4 4 4 1 2 2 3 2 2 2 2 3 3 3 4 4 4 5 4 4 4 5 5 6 6 6 6 7 7 7 8 9
0 0 1 0 0 0 1 0 1 2 0 2 1 1 2 1 2 1 4 5 7 9 9 6 8 6 6 5 2 4 2 4 5 6 8 6 3 2 1 2 4 5 5 5 5 5 4 4 5 5 5 3 2 3 2 3 2 1 2 2 2 2 2 2 3 4 4 5 4 4 4 4 4 4 4 5 6 6 7 6 7 8 8 8 8 8
0 0 0 0 0 1 0 1 2 1 1 0 1 1 2 2 3 1 0 1 2 2 6 4 4 5 3 2 3 3 5 5 6 7 1 2 2 1 1 2 4 5 4 5 4 4 4 4 3 4 3 4 3 4 4 4 1 1 2 3 3 2 3 3 4 4 5 4 4 4 4 4 4 4 5 5 6 6 6 7 8 8 7 8 8 9
1 1 1 1 0 1 0 2 0 1 0 1 1 1 1 1 1 0 1 0 2 2 4 3 1 2 4 4 2 2 4 4 6 2 2 1 3 4 2 3 3 3 4 5 5 4 4 4 3 3 3 5 5 4 4 3 1 2 3 4 4 4 4 4 4 4 4 4 4 4 4 4 4 4 4 5 6 7 7 7 6 7 7 8 10 10
2 1 1 1 0 0 1 1 1 0 1 0 0 1 1 2 2 0 1 2 1 1 0 1 1 2 2 2 2 3 4 5 6 3 3 1 2 1 4 5 4 4 4 5 5 6 5 4 3 4 4 4 5 5 3 2 3 4 4 4 4 3 3 4 4 4 4 3 4 4 4 4 4 4 5 6 6 6 7 7 8 7 7 7 8 9
1 0 0 1 2 1 0 1 1 0 0 1 2 1 0 1 1 1 3 2 1 1 2 1 1 1 3 1 1 0 2 4 7 1 3 1 1 2 4 5 5 5 5 5 5 4 4 3 4 4 4 5 5 4 3 2 3 3 3 4 3 2 4 3 4 3 4 4 4 3 3 3 4 5 5 6 6 6 6 7 7 7 8 7 7 8
3 2 4 1 1 1 2 1 2 1 1 2 2 2 0 1 1 0 4 2 3 4 3 4 2 3 2 2 2 3 6 6 5 3 4 6 7 6 4 2 4 4 5 6 6 5 4 3 2 4 4 4 5 4 1 2 2 2 3 3 3 4 3 3 4 4 4 4 3 3 3 3 4 5 5 5 6 6 6 6 7 8 8 8 7 7
1 0 1 1 0 0 0 1 3 2 2 2 0 2 1 1 0 3 2 3 4 3 4 4 4 4 2 4 4 5 6 5 5 6 6 6 5 5 5 5 5 4 4 4 5 5 4 3 2 3 4 4 4 3 2 2 1 2 3 3 3 3 3 4 4 4 4 3 2 3 3 4 4 4 5 4 4 6 6 6 6 6 7 6 6 8
1 1 1 0 1 1 2 0 2 1 1 5 5 0 0 1 3 2 1 1 1 3 2 3 3 5 3 5 5 6 7 6 5 6 5 5 5 6 6 5 5 5 5 5 5 4 2 4 4 4 4 4 4 3 1 1 1 2 2 3 3 2 4 4 4 3 2 2 2 3 3 3 4 5 4 4 4 4 5 5 5 6 5 7 7 7
1 0 1 1 3 0 0 1 2 1 2 5 7 1 3 6 1 2 2 1 1 2 1 2 4 4 4 4 6 7 6 6 5 4 5 5 4 5 4 5 5 5 5 4 4 4 3 3 3 4 4 4 4 4 1 1 0 1 2 3 2 3 4 3 3 1 1 1 2 3 2 3 4 5 5 5 5 4 5 6 6 5 5 6 6 6
4 3 1 1 2 3 4 3 2 1 3 7 8 4 1 4 3 4 2 2 2 4 2 1 4 4 4 5 5 5 7 5 5 4 4 5 5 5 5 5 5 5 5 5 5 4 2 2 4 4 4 4 4 4 1 2 1 0 2 2 3 3 3 2 1 1 1 2 3 3 3 4 5 5 5 5 4 5 5 5 5 6 5 5 5 5
0 1 2 1 4 4 7 13 8 3 3 4 7 7 6 2 1 4 3 2 3 4 2 3 3 4 5 4 5 6 5 5 5 5 5 5 5 5 5 4 3 3 4 4 4 4 3 2 3 4 4 4 4 4 1 3 4 3 3 3 4 3 3 1 0 0 1 1 3 4 4 4 5 5 6 5 4 4 4 4 6 6 6 5 4 5
1 1 1 1 2 3 6 1 3 5 4 6 8 7 7 6 6 4 2 4 5 4 4 3 5 6 6 5 5 7 7 5 5 5 4 4 5 5 5 4 4 2 3 4 4 3 3 2 3 4 3 2 3 2 5 5 5 4 4 4 3 3 2 1 0 1 1 2 3 4 2 4 5 5 5 5 5 4 4 5 4 5 5 5 5 5
1 2 1 5 1 4 9 4 4 4 5 5 6 5 6 5 5 5 5 5 4 3 3 5 3 5 3 6 5 6 7 5 5 5 4 4 5 5 4 4 3 3 3 2 4 2 1 1 2 2 2 2 3 3 5 5 4 4 5 3 3 1 0 0 0 1 1 2 3 1 3 5 5 5 6 6 6 5 5 4 4 5 6 5 5 6
3 4 2 4 5 8 7 12 14 10 9 9 7 7 6 5 4 3 4 4 3 3 5 5 4 6 5 7 5 5 6 5 5 5 5 5 5 4 4 4 3 2 3 3 3 1 2 2 2 3 2 2 1 4 4 5 4 4 4 3 2 1 1 1 2 2 2 1 2 2 3 4 4 4 5 5 6 5 4 5 5 6 5 4 3 4
5 5 3 1 4 7 8 7 3 2 1 1 1 4 4 4 4 2 1 1 2 4 5 5 5 5 6 6 6 5 6 7 4 3 4 5 5 5 5 3 2 3 4 3 1 2 2 2 2 2 1 1 2 5 5 4 4 4 3 3 2 2 1 1 3 2 0 1 2 2 4 4 4 4 4 5 6 8 6 5 8 8 6 5 8 13
9 9 7 7 6 8 8 7 5 4 2 3 2 4 5 4 4 3 4 5 5 5 5 5 5 4 4 5 5 6 6 6 6 3 4 5 6 5 4 4 4 4 4 3 3 3 1 1 1 2 2 2 4 4 4 4 4 3 3 3 2 2 1 2 2 2 2 1 2 3 3 4 4 4 4 4 5 5 7 8 3 8 11 11 12 14
Wind_Direction
227 147 167 154 164 346 348 37 308 273 235 178 105 117 120 115 108 114 129 131 107 87 69 101 109 114 121 140 151 165 177 202 154 174 156 171 214 194 174 149 126 125 95 99 123 132 326 38 48 24 351 336 126 30 17 32 28 20 11 27 25 4 21 23 10 2 11 17 350 349 26 350 357 10 277 245 175 233 110 343 293 309 287 310 294 292
355 142 16 2 329 305 303 299 305 307 295 134 116 112 102 107 112 102 92 59 19 105 104 107 103 100 113 130 155 165 181 189 185 190 182 177 189 193 186 135 171 112 115 165 170 172 183 68 312 159 188 339 15 19 19 27 20 8 18 30 16 21 10 46 17 344 18 24 65 287 303 355 311 358 346 327 342 339 258 224 226 259 271 265 267 265
348 70 354 342 336 277 251 305 291 291 99 107 112 108 105 104 101 92 91 90 92 93 114 111 97 100 111 127 158 179 195 194 190 201 197 185 182 193 182 171 148 126 161 173 164 147 145 170 218 223 167 200 360 34 13 19 331 356 39 39 3 47 4 42 40 353 11 336 355 7 295 318 305 267 212 236 253 262 272 263 239 232 247 246 258 267
100 22 344 324 326 310 340 65 53 82 84 102 115 115 122 134 129 129 119 128 108 92 135 125 97 98 101 118 172 198 222 161 135 329 349 344 236 188 189 181 179 178 156 179 181 187 184 175 190 195 205 170 161 267 216 129 344 305 60 59 349 345 29 6 70 328 295 276 264 280 263 270 231 257 302 259 248 250 255 259 240 226 226 238 249 255
72 10 318 295 292 68 89 75 72 90 92 74 102 115 121 150 93 107 128 102 86 79 116 109 85 97 142 177 183 228 242 273 206 220 250 227 262 301 35 28 337 220 169 182 173 195 187 185 204 192 194 151 200 208 211 215 268 112 286 181 42 286 310 209 165 310 311 299 285 268 270 268 302 309 289 295 286 245 241 256 269 250 224 230 242 246
49 29 290 243 93 102 87 73 18 65 106 95 88 120 133 116 114 117 126 112 94 111 181 76 96 285 165 206 203 173 199 230 218 207 219 216 211 212 226 217 191 212 275 189 192 187 201 205 199 190 157 182 218 227 196 181 238 256 251 200 214 274 248 226 233 248 315 310 311 309 333 328 316 306 317 292 282 307 301 277 260 278 270 255 248 245
2 350 23 34 97 20 66 73 28 306 109 109 149 135 120 116 119 140 127 106 115 140 157 44 111 154 104 214 199 187 192 221 209 214 220 215 210 196 209 203 196 189 194 215 244 214 187 207 211 201 186 196 207 221 172 182 215 227 240 235 220 247 270 201 231 288 285 288 275 275 278 271 275 276 274 264 295 299 278 273 279 274 279 267 259 257
339 4 20 29 48 355 122 71 1 355 99 85 127 119 128 127 139 160 127 86 84 61 28 4 188 103 171 229 193 188 204 205 217 215 215 219 208 204 198 202 201 194 189 181 205 216 212 208 202 209 201 195 201 201 164 195 213 219 214 216 213 230 247 232 189 224 223 259 277 280 263 261 255 248 255 271 275 271 274 281 275 270 265 265 258 258
347 10 23 24 31 51 35 203 281 272 114 131 135 139 138 142 160 134 92 107 130 138 97 218 230 40 175 155 160 177 207 223 222 218 210 207 209 204 201 194 199 204 187 182 193 207 207 210 206 206 203 190 192 174 180 202 214 215 217 217 212 238 250 254 214 210 231 228 249 262 268 277 264 261 270 282 281 274 272 274 275 270 263 262 261 256
31 40 343 28 43 38 315 271 271 100 100 138 141 131 137 145 140 110 110 110 141 126 155 101 41 89 44 119 151 173 229 237 229 217 209 201 204 199 188 194 198 200 189 192 197 200 205 196 200 198 198 200 196 180 189 205 213 216 201 206 220 237 233 239 237 212 219 228 238 252 255 258 272 277 283 286 282 283 283 277 276 272 270 264 265 262
157 209 272 44 16 316 305 295 135 89 99 137 137 128 130 136 133 101 115 125 93 151 142 4 54 89 214 213 183 152 211 212 202 205 210 204 196 185 180 185 194 194 192 194 204 202 196 190 189 178 203 214 196 187 195 209 210 210 205 216 229 232 230 233 234 220 224 223 225 240 247 251 263 270 274 281 280 275 278 272 273 275 272 271 269 268
42 54 42 330 342 328 249 64 46 99 123 134 138 138 125 92 105 83 90 155 107 152 308 353 48 14 91 290 212 217 219 180 186 203 198 197 199 178 173 182 187 193 192 194 194 200 195 191 191 187 210 211 215 202 203 211 204 205 214 217 234 241 233 235 237 233 233 225 232 235 242 251 253 260 264 265 270 270 270 270 275 274 279 276 274 276
36 34 321 311 256 14 346 87 60 44 5 158 144 142 135 129 130 129 154 137 201 160 194 296 354 4 251 287 196 166 162 163 163 59 11 200 178 150 161 174 190 193 189 186 189 192 196 197 194 204 215 213 219 220 213 202 197 205 213 218 228 246 232 234 235 234 239 232 233 230 236 243 248 250 251 255 262 268 271 274 277 284 282 285 289 281
28 228 28 346 241 359 3 101 127 113 332 149 154 158 120 144 153 137 169 108 53 306 340 58 322 175 341 343 9 82 25 41 62 67 69 51 47 74 140 181 188 189 189 189 189 193 192 192 204 207 210 211 215 218 213 209 200 204 211 216 222 244 237 236 237 238 241 237 233 228 232 239 242 248 249 253 259 267 267 271 278 281 284 288 286 292
91 29 2 1 16 350 32 86 228 16 53 347 138 111 267 51 143 140 163 148 148 156 218 279 82 238 135 238 69 96 79 80 72 82 101 56 68 120 93 18 94 182 188 175 171 177 184 203 206 214 215 214 212 207 206 207 210 208 218 218 227 244 247 237 237 237 238 241 240 237 235 241 242 249 255 257 258 268 278 282 285 287 288 289 292 292
74 82 146 79 212 308 40 20 80 182 296 265 142 230 66 146 271 104 96 107 128 105 61 332 200 109 140 191 102 94 74 34 75 78 58 50 147 115 100 183 117 44 122 119 144 183 219 220 221 217 211 214 215 217 219 218 216 215 223 222 227 232 241 237 238 234 231 236 236 237 243 245 249 256 262 276 281 281 279 284 287 291 292 294 298 303
291 60 313 6 181 39 19 348 120 157 127 231 360 42 235 247 101 117 24 44 85 83 17 224 312 15 62 79 166 199 135 191 109 36 21 266 189 118 222 266 232 202 195 179 183 197 221 228 227 213 215 223 226 225 225 229 222 224 231 232 242 243 243 243 240 242 238 242 243 250 250 261 271 278 285 286 293 295 297 298 298 298 298 304 309 308
116 170 341 35 16 342 238 184 266 211 188 2 83 227 47 82 117 117 133 281 95 137 232 116 217 175 104 301 198 193 170 164 179 194 162 167 117 180 219 219 208 214 202 194 194 199 205 212 215 219 222 222 228 232 240 242 237 231 230 231 240 246 249 252 254 260 266 273 284 291 291 289 285 290 292 295 293 294 298 297 296 300 306 302 301 301
15 74 350 63 207 168 151 32 310 26 11 113 160 164 82 86 82 308 87 104 129 65 185 260 227 318 188 251 198 216 141 141 120 147 175 169 201 213 221 205 186 180 179 197 223 226 225 222 234 240 248 248 243 243 242 252 254 255 254 247 237 252 258 265 273 281 286 283 273 267 266 267 280 282 280 279 281 291 294 294 295 295 292 297 299 303
331 105 325 299 357 292 29 21 53 314 354 41 59 44 227 67 44 102 181 177 106 158 96 302 52 245 345 91 134 97 72 58 63 56 56 48 56 38 37 35 29 46 143 204 218 233 235 243 247 259 272 293 291 300 300 299 308 293 284 288 286 283 281 282 278 269 266 260 250 263 275 284 274 275 276 280 293 301 296 292 296 299 303 295 302 305
299 216 121 283 318 53 15 10 31 354 341 345 12 16 14 31 207 142 53 82 134 162 146 135 301 255 297 315 42 75 74 73 76 83 58 56 58 70 72 56 34 354 11 355 5 5 358 359 356 346 349 340 332 326 311 298 281 274 281 286 284 280 284 281 272 273 266 270 275 273 278 279 291 293 295 303 302 297 291 292 295 298 293 311 312 308
40 25 102 355 30 29 223 301 236 36 311 72 78 87 206 358 18 49 301 115 53 84 171 117 206 336 269 343 49 99 85 102 80 69 52 23 47 79 91 91 151 360 349 12 354 4 337 335 333 334 342 343 339 319 308 293 288 283 275 257 257 263 259 258 272 257 259 261 264 276 285 294 299 299 302 305 301 300 297 302 309 308 323 317 304 311
117 57 80 55 28 63 114 104 12 355 314 307 15 68 226 208 155 60 88 276 16 43 127 205 106 269 240 328 7 102 115 116 117 88 78 9 353 38 20 35 46 59 19 331 328 330 327 321 317 310 303 295 284 284 291 299 291 280 278 283 280 276 277 252 248 246 242 258 279 296 302 310 307 305 310 313 308 310 317 321 322 322 321 315 310 310
202 68 68 42 111 119 138 74 360 35 55 19 317 292 22 67 157 156 177 193 92 321 21 347 73 258 274 284 296 144 130 198 228 180 249 295 296 2 25 30 45 3 326 317 286 264 258 259 267 291 291 288 296 298 297 292 296 293 285 268 260 260 263 267 260 263 297 337 334 324 328 315 306 318 313 318 314 324 324 325 324 324 322 314 312 310
67 333 102 143 29 340 326 342 336 313 66 327 106 66 176 292 177 162 49 335 88 237 161 112 161 257 264 151 257 239 210 261 226 206 180 279 329 22 51 11 342 331 327 311 306 303 311 316 306 284 276 276 273 277 279 287 290 292 291 290 275 261 258 275 300 4 4 12 338 320 312 306 308 314 321 325 332 328 329 329 323 317 312 310 307 305
75 316 22 145 138 116 164 187 195 195 132 139 95 116 7 60 22 70 124 186 137 247 108 136 232 269 331 343 244 230 212 243 191 167 184 166 197 256 343 354 333 336 302 308 326 345 320 278 270 271 276 276 270 272 288 298 300 298 294 286 273 276 304 309 28 40 20 354 333 309 310 306 318 328 336 335 332 327 320 313 309 306 307 307 308 311
101 59 54 92 163 191 159 144 324 351 281 170 260 219 156 351 159 287 171 51 190 189 134 261 138 274 271 256 247 234 206 228 11 36 85 102 84 76 46 13 335 304 282 274 276 271 283 300 293 284 285 278 281 279 270 266 281 283 284 298 328 2 3 334 43 22 21 344 317 310 306 314 328 342 335 325 315 311 311 308 307 315 312 312 313 314
113 78 6 71 58 77 350 333 317 319 360 48 116 273 100 100 36 42 91 168 295 94 290 20 358 50 55 97 50 28 33 31 37 45 42 33 27 14 338 313 307 304 300 326 313 292 279 276 284 295 297 311 308 302 296 274 251 252 261 276 303 310 330 331 52 24 353 324 317 314 310 323 339 338 320 314 316 314 312 317 322 317 314 322 318 314
95 105 267 64 353 292 319 302 324 323 38 338 331 13 10 160 50 73 312 29 44 115 200 330 7 349 276 37 349 3 56 29 42 39 51 44 323 310 300 304 297 293 310 314 281 275 286 295 292 298 302 292 304 310 316 324 306 288 284 267 300 1 336 62 47 349 325 325 321 310 317 332 330 322 329 329 325 325 324 327 323 321 321 316 314 317
91 50 161 118 137 360 346 352 338 43 323 350 259 275 267 60 218 201 271 37 86 237 239 291 321 271 254 275 289 292 71 35 330 334 321 309 269 248 313 285 286 290 285 274 271 279 290 297 305 301 303 311 314 333 349 335 325 323 19 356 335 333 358 55 6 337 328 327 313 313 318 321 330 339 341 333 329 327 334 329 323 320 317 316 317 317
98 203 129 235 109 329 349 66 42 45 53 351 302 332 311 86 23 236 224 242 77 301 271 240 266 289 275 227 227 108 151 293 345 303 267 272 354 334 280 281 280 279 277 279 298 303 308 313 312 321 328 322 342 350 344 326 320 353 6 337 350 23 24 27 343 334 329 313 301 306 324 353 340 351 338 333 341 339 334 324 319 318 318 323 326 321
57 174 104 167 89 304 65 37 73 37 52 103 296 287 251 190 248 227 191 214 151 209 98 86 340 269 260 7 316 271 233 271 258 259 279 283 264 285 269 269 275 284 285 288 297 311 314 317 322 327 326 329 340 352 346 338 338 347 319 342 2 347 351 348 330 318 307 293 305 325 351 350 358 358 344 351 343 333 326 325 324 326 330 330 324 315
22 132 119 157 83 219 303 28 25 0 352 330 276 230 193 195 197 157 226 186 208 155 123 164 219 203 214 7 37 306 232 239 251 123 336 298 267 243 254 256 266 273 294 315 321 323 322 332 336 337 338 342 333 330 324 352 344 318 302 335 301 329 325 316 309 310 314 311 337 358 8 17 14 358 353 345 338 334 333 329 327 329 333 326 315 311
12 332 346 57 118 193 324 13 345 66 358 222 265 330 153 177 190 186 226 206 220 191 200 182 195 238 299 277 258 263 303 318 358 257 231 223 236 247 257 280 298 310 316 319 323 337 341 337 334 330 326 322 313 339 351 339 305 282 274 281 300 310 302 329 325 339 322 344 6 21 26 21 13 0 348 344 343 338 330 328 327 329 324 316 312 313
332 317 63 109 54 215 47 34 70 275 237 212 283 11 29 78 165 201 255 249 209 220 256 287 283 281 261 257 246 248 55 2 340 284 274 246 209 200 231 267 296 328 332 331 331 329 327 326 328 330 327 316 331 335 329 311 293 302 345 320 323 316 335 351 4 348 349 16 19 33 24 19 8 1 352 347 339 330 325 326 329 329 322 315 315 316
22 54 151 160 108 73 86 233 97 242 83 89 69 61 1 32 49 63 303 270 228 210 206 235 262 271 281 278 324 78 41 302 296 283 265 255 190 170 189 322 341 332 320 311 313 312 324 325 312 301 293 289 331 304 303 288 295 9 301 325 330 338 359 18 8 348 16 35 33 29 17 21 11 2 350 338 330 326 327 334 330 324 320 316 313 313
222 236 169 145 203 107 259 226 224 98 71 294 325 251 183 178 183 160 146 305 317 203 161 207 254 265 284 341 56 14 347 348 323 298 339 149 140 162 75 336 307 292 293 302 308 305 305 302 302 293 309 323 319 324 311 291 300 7 348 356 337 10 357 18 0 22 46 40 29 22 19 28 21 354 338 331 328 329 332 329 324 320 319 317 320 323
291 157 222 106 267 133 66 347 334 9 322 289 218 288 33 330 354 359 95 276 332 348 147 173 250 341 353 333 28 347 3 349 331 284 271 57 87 65 331 292 299 313 314 304 310 309 305 299 310 318 327 316 319 299 286 288 348 23 6 350 347 4 356 8 38 52 46 38 21 31 37 25 12 340 336 336 330 327 322 319 318 316 323 327 327 328
268 333 165 104 293 62 15 92 266 180 251 235 267 259 275 335 36 346 32 257 252 246 273 115 296 308 325 341 292 28 35 344 282 263 232 101 41 336 323 331 337 319 310 304 302 308 307 303 305 309 319 320 315 299 311 7 32 19 355 344 341 346 355 46 59 49 43 29 37 49 31 4 350 354 352 334 321 322 321 325 323 319 327 328 329 323
31 243 317 30 50 88 131 74 306 296 243 268 204 226 290 27 71 1 342 294 260 222 226 156 238 269 277 277 196 228 212 281 280 258 190 219 258 333 1 327 324 315 304 293 294 278 281 305 341 335 324 310 291 293 342 32 35 1 332 309 299 348 59 72 64 54 42 49 51 41 6 350 12 6 344 319 314 317 322 321 321 328 328 331 329 322
355 344 47 82 49 101 65 279 326 314 274 196 200 218 228 159 75 165 228 226 216 188 210 166 223 242 230 261 212 255 230 210 249 285 326 341 352 339 329 309 279 275 287 299 297 305 325 305 280 273 272 277 284 303 340 55 40 340 319 315 356 68 81 64 58 47 51 54 40 16 353 8 27 348 320 308 309 316 321 324 325 325 333 329 325 324
330 210 322 38 359 171 210 152 233 241 221 159 292 170 213 60 290 207 225 192 157 189 198 196 236 252 242 247 241 243 259 271 300 319 320 318 313 298 296 290 298 301 283 279 293 316 321 335 328 320 320 306 311 327 26 62 26 330 325 338 72 99 62 60 54 47 54 35 10 8 6 14 350 328 304 302 314 322 321 319 321 326 327 326 328 330
187 121 263 197 177 58 52 12 2 350 249 152 157 52 229 144 240 189 148 278 181 159 189 253 221 268 243 274 262 260 275 286 286 285 288 297 302 294 293 300 302 296 299 314 324 310 323 336 331 317 299 301 315 332 11 73 16 327 323 61 102 78 65 61 54 44 42 5 355 15 1 351 329 313 305 306 317 323 321 320 325 326 329 337 336 334
250 97 248 246 167 112 168 187 199 214 187 188 151 193 215 213 173 134 102 301 226 187 229 242 264 239 247 244 270 280 272 281 296 289 294 293 290 298 308 306 301 304 309 302 299 300 328 323 314 307 304 314 324 323 313 120 326 46 58 97 123 81 67 65 50 55 6 348 359 354 335 323 317 307 305 308 320 330 328 330 327 329 339 346 340 340
222 168 186 172 229 150 209 222 248 253 175 204 203 231 210 212 158 169 150 191 248 290 216 205 251 271 252 250 260 260 287 274 264 272 289 294 307 306 305 294 284 287 295 301 302 306 325 315 312 313 316 308 307 308 283 126 124 104 98 132 115 98 95 79 49 33 9 8 348 334 308 316 314 309 313 315 333 342 335 330 330 337 345 351 342 342
310 157 191 76 271 269 256 237 235 253 226 238 231 235 255 253 189 154 183 270 244 233 232 237 253 258 280 269 279 277 250 278 298 306 303 298 298 293 293 302 308 307 307 319 318 316 313 331 336 327 314 312 304 304 99 91 106 106 115 124 110 111 109 119 113 359 338 338 324 303 300 314 311 318 315 318 335 343 328 331 334 339 338 347 338 339
185 99 85 183 272 24 292 329 172 221 246 244 235 242 240 232 232 200 213 213 252 257 272 262 248 257 251 259 253 263 275 282 287 283 279 293 298 289 288 286 283 281 295 303 286 303 327 342 326 306 304 316 309 39 89 82 81 101 102 90 106 123 137 117 133 331 312 316 304 303 326 334 310 318 321 324 330 343 343 344 341 338 332 331 331 333
308 179 117 227 210 188 235 242 241 235 240 245 236 256 260 243 234 217 205 220 216 235 216 238 243 268 265 274 259 265 271 268 274 282 286 278 276 280 283 282 287 316 302 278 286 301 318 316 284 303 309 302 298 92 99 91 85 89 91 89 77 73 83 201 201 278 277 294 300 322 355 321 314 322 325 324 330 339 346 345 341 337 326 325 328 330
163 120 230 178 202 259 292 280 268 283 286 268 243 229 220 195 195 215 219 220 232 242 259 269 235 236 245 254 260 262 275 270 251 258 274 282 282 284 279 281 290 289 290 302 288 278 279 280 293 270 263 268 280 109 102 104 101 98 103 99 80 57 46 337 294 267 270 289 351 20 333 313 314 320 326 323 324 326 335 342 339 321 303 293 281 307
99 224 209 129 271 284 236 252 129 125 280 328 186 194 176 161 143 159 139 240 242 250 259 260 274 254 239 243 248 251 255 268 254 243 263 266 271 274 285 290 286 280 281 273 290 308 294 275 248 271 273 267 108 112 113 115 109 102 98 89 57 59 44 332 319 306 29 32 11 344 325 322 316 325 332 331 330 329 328 350 340 328 320 304 329 334
192 213 154 196 179 236 249 226 194 171 210 224 191 187 168 155 132 172 220 228 239 241 244 255 278 298 286 275 242 234 251 259 266 249 260 270 270 257 256 267 283 283 280 290 318 308 281 280 292 292 294 262 118 114 119 123 123 113 92 74 64 59 38 4 348 5 32 19 349 320 320 316 315 326 336 336 338 333 325 321 327 331 331 338 335 333